Fountain Dale, PA

7:44 AM EDT on June 23, 2017 (GMT -0400)
Fountain Dale

Weather History for KRYT - October, 2012

Change the Weather History Date:

Tuesday, October 30, 2012

  Actual Average (KHGR) Record (KHGR)
Temperature  
Mean Temperature 44 °F -  
Max Temperature 48 °F 57 °F 81 °F (2016)
Min Temperature 39 °F 40 °F 25 °F (2011)
Degree Days  
Heating Degree Days 22    
Moisture  
Dew Point 38 °F    
Average Humidity 84    
Maximum Humidity 100    
Minimum Humidity 76    
Precipitation  
Precipitation 1.35 in - - ()
Sea Level Pressure  
Sea Level Pressure 29.12 in    
Wind  
Wind Speed 7 mph (SW)    
Max Wind Speed 15 mph    
Max Gust Speed 31 mph    
Visibility 7 miles    
Events Rain    
Averages and records for this station are not official NWS values.
T = Trace of Precipitation, MM = Missing Value Source: NWS Daily Summary

Daily Weather History Graph

Daily Weather History Graph

Search for Another Location

Airport or City:

Trip Planner

Search our weather history database for the weather conditions in past years. The results will help you decide how hot, cold, wet, or windy it might be!

Date:

Astronomy

Oct. 30, 2012 Rise Set
Actual Time 7:36 AM EDT 6:09 PM EDT
Civil Twilight 7:08 AM EDT 6:37 PM EDT
Nautical Twilight 6:36 AM EDT 7:09 PM EDT
Astronomical Twilight 6:05 AM EDT 7:40 PM EDT
Moon 6:38 PM EDT (10/30) 8:21 AM EDT (10/30)
Length of Visible Light 11h 28m
Length of Day
10h 32m
Full, 99% of the Moon is Illuminated
Oct 30
Full
Nov 6
Last Quarter
Nov 13
New
Nov 20
First Quarter
Nov 28
Full

Hourly Weather History & Observations

Time (EDT) Temp. Windchill Dew Point Humidity Pressure Visibility Wind Dir Wind Speed Gust Speed Precip Events Conditions
12:53 AM 46.9 °F - 46.0 °F 97% 28.59 in 2.5 mi West 9.2 mph 21.9 mph 0.12 in Rain Rain
1:02 AM 46.4 °F 41.5 °F 46.4 °F 100% 28.58 in 3.0 mi WNW 10.4 mph 24.2 mph 0.01 in Rain Light Rain
1:22 AM 46.4 °F 40.1 °F 44.6 °F 93% 28.58 in 2.5 mi WSW 15.0 mph 31.1 mph 0.06 in Rain Light Rain
1:53 AM 48.0 °F - 45.0 °F 89% 28.59 in 2.5 mi WNW 9.2 mph 20.7 mph 0.19 in Rain Rain
2:22 AM 46.4 °F 45.2 °F 44.6 °F 93% 28.59 in 3.0 mi Variable 3.5 mph 16.1 mph 0.11 in Rain Rain
2:53 AM 46.9 °F - 43.0 °F 86% 28.60 in 4.0 mi WSW 11.5 mph 21.9 mph 0.18 in Rain Rain
3:40 AM 46.4 °F 40.4 °F 42.8 °F 87% 28.62 in 3.0 mi WSW 13.8 mph 21.9 mph 0.08 in Rain Light Rain
3:53 AM 46.0 °F 39.9 °F 43.0 °F 89% 28.63 in 3.0 mi SSW 13.8 mph 23.0 mph 0.11 in Rain Light Rain
4:05 AM 46.4 °F 40.4 °F 44.6 °F 93% 28.64 in 3.0 mi SW 13.8 mph 25.3 mph 0.03 in Rain Rain
4:53 AM 46.0 °F 40.6 °F 43.0 °F 89% 28.69 in 3.0 mi SSW 11.5 mph 19.6 mph 0.17 in Rain Rain
5:53 AM 45.0 °F 39.7 °F 42.1 °F 90% 28.79 in 4.0 mi SW 10.4 mph 20.7 mph 0.07 in Rain Light Rain
6:28 AM 44.6 °F 39.2 °F 41.0 °F 87% 28.83 in 5.0 mi SSW 10.4 mph 23.0 mph 0.05 in Rain Light Rain
6:53 AM 44.1 °F 40.1 °F 41.0 °F 89% 28.88 in 7.0 mi Variable 6.9 mph - 0.07 in Rain Light Rain
7:11 AM 42.8 °F 38.6 °F 39.2 °F 87% 28.90 in 7.0 mi Variable 6.9 mph - 0.03 in Rain Light Rain
7:53 AM 42.1 °F 37.7 °F 39.0 °F 89% 28.97 in 7.0 mi WSW 6.9 mph - 0.10 in Rain Light Rain
8:04 AM 42.8 °F 39.3 °F 37.4 °F 81% 28.97 in 5.0 mi SW 5.8 mph - 0.01 in Rain Light Rain
8:53 AM 41.0 °F 38.0 °F 39.0 °F 93% 29.04 in 10.0 mi SW 4.6 mph - 0.05 in Rain Light Rain
9:53 AM 41.0 °F 39.0 °F 39.0 °F 93% 29.10 in 3.0 mi West 3.5 mph - 0.09 in Rain Light Rain
10:07 AM 41.0 °F 39.0 °F 37.4 °F 87% 29.10 in 4.0 mi Variable 3.5 mph - 0.02 in Rain Light Rain
10:36 AM 39.2 °F 35.9 °F 37.4 °F 93% 29.13 in 6.0 mi Variable 4.6 mph - 0.06 in Rain Light Rain
10:53 AM 39.9 °F 36.7 °F 37.9 °F 93% 29.16 in 6.0 mi Variable 4.6 mph - 0.08 in Rain Light Rain
11:53 AM 41.0 °F 37.1 °F 39.0 °F 93% 29.20 in 10.0 mi Variable 5.8 mph - 0.03 in Rain Light Rain
12:21 PM 42.8 °F - 39.2 °F 87% 29.20 in 8.0 mi Calm Calm - 0.01 in Rain Light Rain
12:53 PM 41.0 °F 37.1 °F 39.0 °F 93% 29.23 in 6.0 mi SSW 5.8 mph - 0.03 in Rain Light Rain
1:20 PM 41.0 °F 39.0 °F 35.6 °F 81% 29.22 in 3.0 mi Variable 3.5 mph - 0.02 in Rain Light Rain
1:36 PM 41.0 °F 38.0 °F 35.6 °F 81% 29.23 in 3.0 mi Variable 4.6 mph - 0.03 in Rain Light Rain
1:53 PM 41.0 °F - 36.0 °F 82% 29.26 in 4.0 mi Calm Calm - 0.04 in Rain Light Rain
2:00 PM 41.0 °F 39.0 °F 35.6 °F 81% 29.24 in 5.0 mi Variable 3.5 mph - 0.00 in Rain Light Rain
2:10 PM 41.0 °F 38.0 °F 35.6 °F 81% 29.24 in 6.0 mi WSW 4.6 mph - 0.01 in Rain Light Rain
2:33 PM 42.8 °F 39.3 °F 35.6 °F 76% 29.25 in 9.0 mi SW 5.8 mph - 0.01 in Rain Light Rain
2:53 PM 42.1 °F 39.2 °F 36.0 °F 79% 29.27 in 10.0 mi WSW 4.6 mph - 0.02 in Rain Light Rain
3:05 PM 42.8 °F 41.1 °F 37.4 °F 81% 29.26 in 9.0 mi SW 3.5 mph - 0.00 in Rain Light Rain
3:17 PM 42.8 °F 41.1 °F 35.6 °F 76% 29.27 in 10.0 mi WSW 3.5 mph - 0.00 in Rain Light Rain
3:29 PM 42.8 °F 40.1 °F 37.4 °F 81% 29.27 in 10.0 mi SW 4.6 mph - 0.00 in Rain Light Rain
4:21 PM 42.8 °F 38.6 °F 35.6 °F 76% 29.30 in 9.0 mi SSW 6.9 mph - 0.00 in Rain Light Rain
4:28 PM 42.8 °F 41.1 °F 35.6 °F 76% 29.30 in 7.0 mi WSW 3.5 mph - 0.00 in Rain Light Rain
4:35 PM 42.8 °F 41.1 °F 35.6 °F 76% 29.30 in 9.0 mi WSW 3.5 mph - 0.00 in Rain Light Rain
4:53 PM 43.0 °F 40.3 °F 36.0 °F 76% 29.33 in 10.0 mi SW 4.6 mph - 0.00 in   Overcast
5:20 PM 42.8 °F 39.3 °F 35.6 °F 76% 29.32 in 10.0 mi WSW 5.8 mph - N/A   Overcast
5:29 PM 42.8 °F 41.1 °F 35.6 °F 76% 29.33 in 10.0 mi WSW 3.5 mph - N/A   Overcast
5:53 PM 42.1 °F - 36.0 °F 79% 29.36 in 10.0 mi Calm Calm - N/A   Overcast
6:27 PM 42.8 °F - 35.6 °F 76% 29.36 in 10.0 mi Calm Calm - 0.00 in Rain Light Rain
6:53 PM 42.1 °F - 37.0 °F 82% 29.39 in 10.0 mi Calm Calm - 0.00 in   Overcast
7:04 PM 42.8 °F - 37.4 °F 81% 29.37 in 10.0 mi Calm Calm - N/A   Overcast
7:28 PM 41.0 °F 39.0 °F 37.4 °F 87% 29.38 in 10.0 mi SSW 3.5 mph - N/A   Overcast
7:43 PM 41.0 °F - 35.6 °F 81% 29.38 in 10.0 mi Calm Calm - N/A   Overcast
7:53 PM 41.0 °F - 36.0 °F 82% 29.41 in 10.0 mi Calm Calm - N/A   Overcast
8:26 PM 41.0 °F - 35.6 °F 81% 29.40 in 10.0 mi Calm Calm - N/A   Overcast
8:53 PM 41.0 °F 38.0 °F 35.1 °F 79% 29.42 in 10.0 mi SW 4.6 mph - N/A   Overcast
9:11 PM 41.0 °F 39.0 °F 35.6 °F 81% 29.41 in 10.0 mi SSW 3.5 mph - N/A   Overcast
9:53 PM 41.0 °F - 36.0 °F 82% 29.44 in 10.0 mi Calm Calm - N/A   Overcast
10:53 PM 41.0 °F - 35.1 °F 79% 29.44 in 10.0 mi Calm Calm - N/A   Overcast
11:53 PM 41.0 °F - 35.1 °F 79% 29.44 in 10.0 mi Calm Calm - 0.00 in   Overcast